AirNav   Air Wisconsin pilot careers
 
 1001 users online  

MA33 Sagamore Hill Heliport
Ipswich, Massachusetts, USA

GOING TO IPSWICH?


FAA INFORMATION EFFECTIVE 26 APRIL 2018

Location

FAA Identifier: MA33
Lat/Long: 42-38-30.9400N / 070-49-36.3700W
42-38.515667N / 070-49.606167W
42.6419278 / -70.8267694
(estimated)
Elevation: 200 ft. / 61 m (estimated)
Variation: 16W (2000)
From city: 5 miles SW of IPSWICH, MA
Time zone: UTC -4 (UTC -5 during Standard Time)
Zip code: 01938

Heliport Operations

Heliport use: Private use. Permission required prior to landing
Activation date: 04/2001
Control tower: no
ARTCC: BOSTON CENTER
FSS: BRIDGEPORT FLIGHT SERVICE STATION
Attendance: UNATNDD
Segmented circle: no

Heliport Communications

WX ASOS at BVY (5 nm SW): PHONE 978-921-5042
WX ASOS at LWM (14 nm W): 126.75 (978-687-8017)
WX ASOS at BOS (19 nm SW): PHONE 617-567-5762

Nearby radio navigation aids

VOR radial/distance  VOR name  Freq  Var
LWMr132/13.2LAWRENCE VOR/DME112.5015W
BOSr039/18.5BOSTON VOR/DME112.7016W
PSMr196/26.6PEASE VOR/DME116.5016W
MHTr135/27.5MANCHESTER VOR/DME114.4015W

 
NDB name  Hdg/Dist  Freq  Var  ID
SHAKER HILL070/19.125116WSKR ... -.- .-.
MARSHFIELD004/33.336816WIMR .. -- .-.
ROLLINS196/34.726016WESG . ... --.

Heliport Services

Runway Information

Helipad HI

Dimensions: 50 x 50 ft. / 15 x 15 m
Surface: turf
Traffic pattern: leftleft

Heliport Ownership and Management from official FAA records

Ownership: Privately-owned
Owner: JOHN DONOVAN
219 VASSAR ST
CAMBRIDGE, MA 02139
Phone 617-528-1699
Manager: JOHN DONOVAN
219 VASSAR ST.
CAMBRIDGE, MA 02139
Phone 617-528-1699

Additional Remarks

25 FT TREES ALL QUANDRANTS.
SCHOOL 3,800 FT NE OF HELIPAD.

Instrument Procedures

There are no published instrument procedures at MA33.

Some nearby airports with instrument procedures:

KBVY - Beverly Regional Airport (5 nm SW)
KLWM - Lawrence Municipal Airport (14 nm W)
KBOS - General Edward Lawrence Logan International Airport (19 nm SW)
KBED - Laurence G Hanscom Field Airport (23 nm SW)
KPSM - Portsmouth International Airport at Pease (26 nm N)
 
Loc | Ops | Rwys | IFR | FBO | Links
Com | Nav | Svcs | Stats | Notes

AirNav Hotels Sweepstakes
 
Area around MA33 (Sagamore Hill Heliport)
 
Road maps at: MapQuest Bing Google
 
Aerial photo
No photo
 
Sectional chart

 
Airport distance calculator
Flying to Sagamore Hill Heliport? Find the distance to fly.

From to MA33

Sunrise and sunset
Times for 21-May-2018
 Local
(UTC-4)
 Zulu
(UTC)
Morning civil twilight04:4308:43
Sunrise05:1609:16
Sunset20:0300:03
Evening civil twilight20:3600:36

Current date and time
Zulu (UTC)  22-May-2018 00:56:18
Local (UTC-4)  21-May-2018 20:56:18
 
METAR
KBVY 
5nm SW 
212353Z 12003KT 10SM SCT250 19/09 A3007 RMK AO2 SLP179 T01890094 10250 20183 53007
KLWM 
14nm W 
212354Z 27003KT 10SM CLR 25/04 A3009 RMK AO2 SLP190 T02500039 10267 20244 53008
KBOS 
19nm SW 
212354Z 22012KT 10SM FEW140 BKN220 BKN320 21/09 A3008 RMK AO2 SLP186 T02110089 10267 20206 53006
TAF
KBOS 
19nm SW 
212105Z 2121/2224 24009KT P6SM FEW250 FM220200 23006KT P6SM FEW250 FM221400 19004KT P6SM OVC100 FM222100 19008KT P6SM -SHRA OVC070
NOTAMs
Click for the latest NOTAMs
NOTAMs are issued by the DoD/FAA and will open in a separate window not controlled by AirNav.

 

 
 

Would you like to see your business listed on this page?

 If your business provides an interesting product or service to pilots, flight crews, aircraft, or users of the Sagamore Hill Heliport, you should consider listing it here.  To start the listing process, click on the button below
 
Add a business
 

Other Pages about Sagamore Hill Heliport

Update a link
 
Copyright © AirNav, LLC. All rights reserved. Privacy Policy  Contact